Weather observations for the past three days for
Show Low, Show Low Regional Airport
| Date | Time (mst) | Wind (kph) | Vis. (km) | Weather | Sky Cond. | Temperature (ºC) | Relative Humidity | Wind Chill (°C) | Heat Index (°C) | Pressure | Precipitation (cm) | ||||||
|---|---|---|---|---|---|---|---|---|---|---|---|---|---|---|---|---|---|
| Air | Dwpt | 6 hour | altimeter (cm) | sea level (mb) | 1 hr | 3 hr | 6 hr | ||||||||||
| Max. | Min. | ||||||||||||||||
| 03 | 00:35 | S 13 | 16.09 | Fair | CLR | 16 | 11 | 72% | 76.89 | 0.0 | |||||||
| 03 | 00:15 | S 11 | 16.09 | Fair | CLR | 16 | 11 | 72% | 76.91 | 0.0 | |||||||
| 02 | 23:55 | S 7 | 16.09 | Fair | CLR | 16 | 11 | 72% | 76.91 | 0.0 | |||||||
| 02 | 23:35 | S 13 | 16.09 | Fair | CLR | 17 | 11 | 68% | 76.89 | 0.0 | |||||||
| 02 | 23:15 | S 11 | 16.09 | Fair | CLR | 17 | 11 | 68% | 76.89 | 0.0 | |||||||
| 02 | 22:55 | S 15 | 16.09 | Fair | CLR | 18 | 10 | 60% | 76.89 | 0.0 | |||||||
| 02 | 22:35 | S 13 | 16.09 | Fair | CLR | 18 | 10 | 60% | 76.91 | 0.0 | |||||||
| 02 | 22:15 | S 15 | 16.09 | Fair | CLR | 17 | 11 | 68% | 76.91 | 0.0 | |||||||
| 02 | 21:55 | S 11 | 16.09 | Fair | CLR | 17 | 11 | 68% | 76.91 | 0.0 | |||||||
| 02 | 21:35 | SW 7 | 16.09 | Fair | CLR | 17 | 11 | 68% | 76.91 | 0.0 | |||||||
| 02 | 21:15 | S 13 | 16.09 | Fair | CLR | 18 | 11 | 64% | 76.91 | 0.0 | |||||||
| 02 | 20:55 | S 13 | 16.09 | Fair | CLR | 19 | 11 | 60% | 76.91 | 0.0 | |||||||
| 02 | 20:35 | S 11 | 16.09 | Fair | CLR | 19 | 10 | 56% | 76.91 | 0.0 | |||||||
| 02 | 20:15 | SW 11 | 16.09 | Fair | CLR | 20 | 10 | 53% | 76.89 | 0.0 | |||||||
| 02 | 19:55 | SW 11 | 16.09 | Fair | CLR | 20 | 10 | 53% | 76.86 | 0.0 | |||||||
| 02 | 19:35 | SW 11 | 16.09 | Fair | CLR | 21 | 11 | 53% | 76.84 | 0.0 | |||||||
| 02 | 19:15 | SW 13 | 16.09 | Fair | CLR | 21 | 10 | 50% | 76.84 | 0.0 | |||||||
| 02 | 18:55 | SW 13 | 16.09 | Fair | CLR | 22 | 10 | 47% | 76.81 | 0.0 | |||||||
| 02 | 18:35 | SW 15 | 16.09 | Fair | CLR | 23 | 10 | 44% | 76.81 | 0.0 | |||||||
| 02 | 18:15 | SW 20 | 16.09 | Fair | CLR | 24 | 10 | 41% | 25 | 76.81 | 0.0 | ||||||
| 02 | 17:55 | SW 17 G 28 | 16.09 | Fair | CLR | 25 | 10 | 39% | 26 | 76.81 | 0.0 | ||||||
| 02 | 17:35 | SW 20 | 16.09 | Fair | CLR | 25 | 9 | 36% | 26 | 76.78 | 0.0 | ||||||
| 02 | 17:15 | SW 20 | 16.09 | Fair | CLR | 25 | 9 | 36% | 26 | 76.81 | 0.0 | ||||||
| 02 | 16:55 | W 24 | 16.09 | Fair | CLR | 26 | 9 | 34% | 26 | 76.81 | 0.0 | ||||||
| 02 | 16:35 | W 22 | 16.09 | Fair | CLR | 26 | 7 | 30% | 26 | 76.81 | 0.0 | ||||||
| 02 | 16:15 | SW 24 | 16.09 | Fair | CLR | 27 | 7 | 28% | 26 | 76.81 | 0.0 | ||||||
| 02 | 15:55 | SW 24 G 35 | 16.09 | Fair | CLR | 27 | 7 | 28% | 26 | 76.84 | 0.0 | ||||||
| 02 | 15:35 | SW 22 G 35 | 16.09 | A Few Clouds | FEW075 | 27 | 8 | 30% | 26 | 76.84 | 0.0 | ||||||
| 02 | 15:15 | SW 26 G 41 | 16.09 | Fair | CLR | 27 | 7 | 28% | 26 | 76.86 | 0.0 | ||||||
| 02 | 14:55 | SW 22 | 16.09 | Fair | CLR | 27 | 7 | 28% | 26 | 76.86 | 0.0 | ||||||
| 02 | 14:35 | SW 20 G 39 | 16.09 | Fair | CLR | 27 | 7 | 28% | 26 | 76.89 | 0.0 | ||||||
| 02 | 14:15 | SW 22 G 35 | 16.09 | Fair | CLR | 26 | 6 | 28% | 26 | 76.89 | 0.0 | ||||||
| 02 | 13:55 | SW 22 G 37 | 16.09 | Fair | CLR | 26 | 8 | 32% | 26 | 76.91 | 0.0 | ||||||
| 02 | 13:35 | SW 20 G 31 | 16.09 | Fair | CLR | 26 | 8 | 32% | 26 | 76.94 | 0.0 | ||||||
| 02 | 13:15 | SW 26 G 35 | 16.09 | Fair | CLR | 26 | 8 | 32% | 26 | 76.96 | 0.0 | ||||||
| 02 | 12:55 | S 24 G 35 | 16.09 | A Few Clouds | FEW060 FEW070 | 26 | 8 | 32% | 26 | 76.99 | 0.0 | ||||||
| 02 | 12:35 | S 22 | 16.09 | Partly Cloudy | SCT060 SCT065 SCT120 | 25 | 10 | 39% | 26 | 76.99 | 0.0 | ||||||
| 02 | 12:15 | S 20 G 31 | 16.09 | A Few Clouds | FEW055 FEW085 FEW120 | 25 | 11 | 42% | 26 | 77.01 | 0.0 | ||||||
| 02 | 11:55 | SW 24 | 16.09 | Fair | CLR | 25 | 9 | 36% | 26 | 77.01 | 0.0 | ||||||
| 02 | 11:35 | S 22 | 16.09 | Fair | CLR | 25 | 9 | 36% | 26 | 77.04 | 0.0 | ||||||
| 02 | 11:15 | W 17 G 28 | 16.09 | Fair | CLR | 25 | 10 | 39% | 26 | 77.04 | 0.0 | ||||||
| 02 | 10:55 | SW 20 | 16.09 | Fair | CLR | 25 | 10 | 39% | 26 | 77.06 | 0.0 | ||||||
| 02 | 10:35 | SW 24 | 16.09 | Fair | CLR | 24 | 11 | 44% | 25 | 77.06 | 0.0 | ||||||
| 02 | 10:15 | SW 19 G 28 | 16.09 | Fair | CLR | 24 | 11 | 44% | 25 | 77.06 | 0.0 | ||||||
| 02 | 09:55 | SW 20 | 16.09 | Fair | CLR | 24 | 12 | 47% | 25 | 77.06 | 0.0 | ||||||
| 02 | 09:35 | S 13 G 24 | 16.09 | Fair | CLR | 23 | 12 | 50% | 77.04 | 0.0 | |||||||
| 02 | 09:15 | S 15 | 16.09 | Fair | CLR | 23 | 12 | 50% | 77.04 | 0.0 | |||||||
| 02 | 08:55 | S 17 | 16.09 | Fair | CLR | 22 | 13 | 57% | 77.04 | 0.0 | |||||||
| 02 | 08:35 | S 15 | 16.09 | Fair | CLR | 22 | 13 | 57% | 77.04 | 0.0 | |||||||
| 02 | 08:15 | S 17 | 16.09 | Fair | CLR | 21 | 13 | 60% | 77.04 | 0.0 | |||||||
| 02 | 07:55 | S 17 | 16.09 | Fair | CLR | 21 | 12 | 57% | 77.04 | 0.0 | |||||||
| 02 | 07:35 | S 11 | 16.09 | Fair | CLR | 20 | 12 | 60% | 77.04 | 0.0 | |||||||
| 02 | 07:15 | S 13 | 16.09 | Fair | CLR | 18 | 12 | 68% | 77.04 | 0.0 | |||||||
| 02 | 06:55 | S 13 | 16.09 | Fair | CLR | 17 | 12 | 73% | 77.04 | 0.0 | |||||||
| 02 | 06:35 | S 11 | 16.09 | Fair | CLR | 15 | 11 | 77% | 77.01 | 0.0 | |||||||
| 02 | 06:15 | S 7 | 16.09 | Fair | CLR | 13 | 11 | 88% | 76.99 | 0.0 | |||||||
| 02 | 05:55 | S 11 | 16.09 | Fair | CLR | 13 | 11 | 88% | 76.99 | 0.0 | |||||||
| 02 | 05:35 | S 13 | 16.09 | Fair | CLR | 13 | 11 | 88% | 76.99 | 0.0 | |||||||
| 02 | 05:15 | S 7 | 16.09 | Fair | CLR | 14 | 12 | 88% | 76.99 | 0.0 | |||||||
| 02 | 04:55 | S 11 | 16.09 | Fair | CLR | 15 | 12 | 82% | 76.96 | 0.0 | |||||||
| 02 | 04:35 | S 13 | 16.09 | Fair | CLR | 14 | 12 | 88% | 76.96 | 0.0 | |||||||
| 02 | 04:15 | S 9 | 16.09 | Fair | CLR | 14 | 12 | 88% | 76.96 | 0.0 | |||||||
| 02 | 03:55 | S 9 | 16.09 | Fair | CLR | 14 | 11 | 82% | 76.99 | 0.0 | |||||||
| 02 | 03:35 | S 15 | 16.09 | Fair | CLR | 15 | 11 | 77% | 76.99 | 0.0 | |||||||
| 02 | 03:15 | S 13 | 16.09 | Fair | CLR | 15 | 11 | 77% | 76.99 | 0.0 | |||||||
| 02 | 02:55 | S 17 | 16.09 | Fair | CLR | 15 | 11 | 77% | 76.99 | 0.0 | |||||||
| 02 | 02:35 | S 17 | 16.09 | Fair | CLR | 16 | 11 | 72% | 76.99 | 0.0 | |||||||
| 02 | 02:15 | S 15 | 16.09 | Fair | CLR | 15 | 11 | 77% | 76.99 | 0.0 | |||||||
| 02 | 01:55 | S 17 | 16.09 | Fair | CLR | 15 | 11 | 77% | 76.99 | 0.0 | |||||||
| 02 | 01:35 | S 11 | 16.09 | Fair | CLR | 14 | 11 | 82% | 76.99 | 0.0 | |||||||
| 02 | 01:15 | S 9 | 16.09 | Fair | CLR | 14 | 11 | 82% | 76.99 | 0.0 | |||||||
| 02 | 00:55 | S 13 | 16.09 | Fair | CLR | 15 | 11 | 77% | 76.99 | 0.0 | |||||||
| 02 | 00:35 | S 9 | 16.09 | Fair | CLR | 15 | 11 | 77% | 76.99 | 0.0 | |||||||
| 02 | 00:15 | S 11 | 16.09 | Fair | CLR | 16 | 11 | 72% | 76.99 | 0.0 | |||||||
| 01 | 23:55 | S 9 | 16.09 | Fair | CLR | 16 | 11 | 72% | 76.99 | 0.0 | |||||||
| 01 | 23:35 | S 11 | 16.09 | Fair | CLR | 16 | 11 | 72% | 76.99 | 0.0 | |||||||
| 01 | 23:15 | S 13 | 16.09 | Fair | CLR | 17 | 11 | 68% | 76.99 | 0.0 | |||||||
| 01 | 22:55 | S 15 | 16.09 | Fair | CLR | 17 | 11 | 68% | 76.99 | 0.0 | |||||||
| 01 | 22:35 | S 15 | 16.09 | Fair | CLR | 17 | 11 | 68% | 76.99 | 0.0 | |||||||
| 01 | 22:15 | S 15 | 16.09 | Fair | CLR | 18 | 11 | 64% | 76.99 | 0.0 | |||||||
| 01 | 21:55 | S 15 | 16.09 | Fair | CLR | 18 | 11 | 64% | 76.99 | 0.0 | |||||||
| 01 | 21:35 | S 15 | 16.09 | Fair | CLR | 18 | 11 | 64% | 76.99 | 0.0 | |||||||
| 01 | 21:15 | S 7 | 16.09 | Fair | CLR | 18 | 11 | 64% | 76.99 | 0.0 | |||||||
| 01 | 20:55 | S 15 | 16.09 | Fair | CLR | 19 | 11 | 60% | 76.96 | 0.0 | |||||||
| 01 | 20:35 | S 13 | 16.09 | Fair | CLR | 18 | 11 | 64% | 76.94 | 0.0 | |||||||
| 01 | 19:55 | SW 11 | 16.09 | Fair | CLR | 20 | 10 | 53% | 76.89 | 0.0 | |||||||
| 01 | 19:35 | SW 9 | 16.09 | Fair | CLR | 20 | 10 | 53% | 76.86 | 0.0 | |||||||
| 01 | 19:15 | SW 11 | 16.09 | Fair | CLR | 21 | 10 | 50% | 76.84 | 0.0 | |||||||
| 01 | 18:55 | SW 11 | 16.09 | Fair | CLR | 21 | 10 | 50% | 76.84 | 0.0 | |||||||
| 01 | 18:35 | W 13 | 16.09 | Fair | CLR | 22 | 10 | 47% | 76.84 | 0.0 | |||||||
| 01 | 18:15 | W 13 G 24 | 16.09 | Fair | CLR | 24 | 10 | 41% | 25 | 76.84 | 0.0 | ||||||
| 01 | 17:55 | W 20 | 16.09 | Fair | CLR | 24 | 9 | 39% | 25 | 76.84 | 0.0 | ||||||
| 01 | 17:35 | W 15 | 16.09 | A Few Clouds | FEW075 | 25 | 9 | 36% | 26 | 76.84 | 0.0 | ||||||
| 01 | 17:15 | W 15 | 16.09 | Fair | CLR | 26 | 7 | 30% | 26 | 76.84 | 0.0 | ||||||
| 01 | 16:55 | W 19 | 16.09 | Fair | CLR | 26 | 7 | 30% | 26 | 76.84 | 0.0 | ||||||
| 01 | 16:35 | SW 19 | 16.09 | Fair | CLR | 26 | 4 | 24% | 26 | 76.84 | 0.0 | ||||||
| 01 | 16:15 | SW 15 G 28 | 16.09 | Fair | CLR | 27 | 5 | 24% | 26 | 76.84 | 0.0 | ||||||
| 01 | 15:55 | SW 17 G 28 | 16.09 | Fair | CLR | 27 | 6 | 26% | 26 | 76.84 | 0.0 | ||||||
| 01 | 15:35 | W 15 | 16.09 | A Few Clouds | FEW080 FEW090 | 27 | 6 | 26% | 26 | 76.84 | 0.0 | ||||||
| 01 | 15:15 | W 13 G 26 | 16.09 | Partly Cloudy | SCT080 SCT090 | 27 | 8 | 30% | 26 | 76.86 | 0.0 | ||||||
| 01 | 14:55 | Calm | 16.09 | Mostly Cloudy | FEW080 BKN090 | 26 | 8 | 32% | 26 | 76.86 | 0.0 | ||||||
| 01 | 14:35 | W 9 | 16.09 | Mostly Cloudy | FEW080 BKN090 BKN120 | 25 | 9 | 36% | 26 | 76.89 | 0.0 | ||||||
| 01 | 14:15 | Calm | 16.09 | Mostly Cloudy | BKN095 | 25 | 8 | 34% | 26 | 76.89 | 0.0 | ||||||
| 01 | 13:55 | Calm | 16.09 | A Few Clouds | FEW095 | 25 | 8 | 34% | 26 | 76.91 | 0.0 | ||||||
| 01 | 13:35 | Vrbl 6 | 16.09 | Fair | CLR | 25 | 9 | 36% | 26 | 76.94 | 0.0 | ||||||
| 01 | 13:15 | N 9 | 16.09 | Fair | CLR | 25 | 10 | 39% | 26 | 76.96 | 0.0 | ||||||
| 01 | 12:55 | Calm | 16.09 | Fair | CLR | 25 | 9 | 36% | 26 | 76.99 | 0.0 | ||||||
| 01 | 12:35 | Calm | 16.09 | Fair | CLR | 24 | 10 | 41% | 25 | 76.99 | 0.0 | ||||||
| 01 | 12:15 | Vrbl 6 | 16.09 | Fair | CLR | 24 | 9 | 39% | 25 | 77.01 | 0.0 | ||||||
| 01 | 11:55 | Calm | 16.09 | Fair | CLR | 23 | 10 | 44% | 77.01 | 0.0 | |||||||
| 01 | 11:35 | Vrbl 7 | 16.09 | Fair | CLR | 23 | 12 | 50% | 77.01 | 0.0 | |||||||
| 01 | 11:15 | NE 6 | 14.48 | Fair | CLR | 23 | 11 | 47% | 77.04 | 0.0 | |||||||
| 01 | 10:55 | N 9 | 16.09 | Fair | CLR | 23 | 12 | 50% | 77.06 | 0.0 | |||||||
| 01 | 10:35 | Vrbl 7 | 16.09 | Fair | CLR | 22 | 11 | 50% | 77.06 | 0.0 | |||||||
| 01 | 10:15 | NW 11 | 16.09 | Fair | CLR | 22 | 11 | 50% | 77.06 | 0.0 | |||||||
| 01 | 09:35 | Calm | 16.09 | Fair | CLR | 21 | 10 | 50% | 77.04 | 0.0 | |||||||
| 01 | 09:15 | NW 6 | 16.09 | Fair | CLR | 20 | 11 | 56% | 77.04 | 0.0 | |||||||
| 01 | 08:55 | Calm | 16.09 | Fair | CLR | 20 | 10 | 53% | 77.04 | 0.0 | |||||||
| 01 | 08:35 | Calm | 16.09 | Fair | CLR | 19 | 10 | 56% | 77.01 | 0.0 | |||||||
| 01 | 08:15 | Vrbl 7 | 16.09 | Fair | CLR | 19 | 10 | 56% | 77.01 | 0.0 | |||||||
| 01 | 07:55 | SW 7 | 16.09 | Fair | CLR | 18 | 11 | 64% | 77.01 | 0.0 | |||||||
| 01 | 07:35 | S 7 | 16.09 | Fair | CLR | 18 | 11 | 64% | 76.99 | 0.0 | |||||||
| 01 | 07:15 | S 6 | 16.09 | Fair | CLR | 16 | 11 | 72% | 76.99 | 0.0 | |||||||
| 01 | 06:55 | SW 6 | 16.09 | Fair | CLR | 15 | 11 | 77% | 76.96 | 0.0 | |||||||
| 01 | 06:35 | S 6 | 16.09 | Fair | CLR | 13 | 10 | 82% | 76.96 | 0.0 | |||||||
| 01 | 06:15 | Calm | 16.09 | Fair | CLR | 11 | 9 | 88% | 76.94 | 0.0 | |||||||
| 01 | 05:55 | SW 7 | 16.09 | Fair | CLR | 11 | 9 | 88% | 76.94 | 0.0 | |||||||
| 01 | 05:35 | S 7 | 16.09 | Fair | CLR | 11 | 9 | 88% | 76.91 | 0.0 | |||||||
| 01 | 05:15 | S 11 | 16.09 | Fair | CLR | 12 | 9 | 82% | 76.91 | 0.0 | |||||||
| 01 | 04:55 | S 7 | 16.09 | Fair | CLR | 11 | 9 | 88% | 76.91 | 0.0 | |||||||
| 01 | 04:35 | Calm | 16.09 | Fair | CLR | 12 | 9 | 82% | 76.91 | 0.0 | |||||||
| 01 | 04:15 | S 9 | 16.09 | Fair | CLR | 12 | 10 | 88% | 76.89 | 0.0 | |||||||
| 01 | 03:55 | S 13 | 16.09 | Fair | CLR | 12 | 10 | 88% | 76.91 | 0.0 | |||||||
| 01 | 03:35 | S 13 | 16.09 | Fair | CLR | 12 | 10 | 88% | 76.91 | 0.0 | |||||||
| 01 | 03:15 | S 13 | 16.09 | Fair | CLR | 12 | 10 | 88% | 76.91 | 0.0 | |||||||
| 01 | 02:55 | S 7 | 16.09 | Fair | CLR | 12 | 10 | 88% | 76.91 | 0.0 | |||||||
| 01 | 02:35 | S 9 | 16.09 | Fair | CLR | 12 | 10 | 88% | 76.91 | 0.0 | |||||||
| 01 | 02:15 | S 9 | 16.09 | Fair | CLR | 13 | 10 | 82% | 76.91 | 0.0 | |||||||
| 01 | 01:55 | Calm | 16.09 | Fair | CLR | 12 | 10 | 88% | 76.91 | 0.0 | |||||||
| 01 | 01:35 | S 9 | 16.09 | Fair | CLR | 12 | 11 | 94% | 76.91 | 0.0 | |||||||
| 01 | 01:15 | S 9 | 16.09 | Fair | CLR | 13 | 11 | 88% | 76.94 | 0.0 | |||||||
| 01 | 00:55 | Calm | 16.09 | Fair | CLR | 13 | 11 | 88% | 76.94 | 0.0 | |||||||
| 01 | 00:35 | S 6 | 16.09 | Fair | CLR | 13 | 11 | 88% | 76.94 | 0.0 | |||||||
| 01 | 00:15 | Calm | 16.09 | Fair | CLR | 13 | 12 | 94% | 76.94 | 0.0 | |||||||
| 31 | 23:55 | S 7 | 16.09 | Fair | CLR | 13 | 11 | 88% | 76.94 | 0.0 | |||||||
| 31 | 23:35 | S 7 | 16.09 | Fair | CLR | 13 | 12 | 94% | 76.94 | 0.0 | |||||||
| 31 | 23:15 | S 9 | 16.09 | Fair | CLR | 14 | 12 | 88% | 76.94 | 0.0 | |||||||
| 31 | 22:55 | S 9 | 16.09 | Fair | CLR | 14 | 13 | 94% | 76.94 | 0.0 | |||||||
| 31 | 22:35 | S 6 | 16.09 | Fair | CLR | 14 | 13 | 94% | 76.94 | 0.0 | |||||||
| 31 | 22:15 | S 7 | 16.09 | Fair | CLR | 14 | 13 | 94% | 76.94 | 0.0 | |||||||
| 31 | 21:35 | Calm | 16.09 | Fair | CLR | 14 | 13 | 94% | 76.94 | 0.0 | |||||||
| 31 | 21:15 | Calm | 16.09 | Fair | CLR | 15 | 13 | 88% | 76.91 | 0.0 | |||||||
| 31 | 20:55 | Calm | 16.09 | Fair | CLR | 15 | 14 | 94% | 76.94 | 0.0 | |||||||
| 31 | 20:35 | Calm | 16.09 | Fair | CLR | 16 | 13 | 83% | 76.91 | 0.0 | |||||||
| 31 | 20:15 | SE 9 | 16.09 | Fair | CLR | 16 | 14 | 88% | 76.91 | 0.0 | |||||||
| 31 | 19:55 | SE 9 | 16.09 | Fair | CLR | 15 | 14 | 94% | 76.91 | 0.0 | |||||||
| 31 | 19:35 | Calm | 16.09 | Fair | CLR | 16 | 14 | 88% | 76.89 | 0.0 | |||||||
| 31 | 18:55 | Calm | 16.09 | A Few Clouds | FEW100 | 17 | 13 | 77% | 76.86 | 0.0 | |||||||
| 31 | 18:35 | NW 6 | 16.09 | Mostly Cloudy | BKN100 | 17 | 13 | 77% | 76.84 | 0.0 | |||||||
| 31 | 18:15 | NW 9 | 16.09 | Mostly Cloudy | BKN100 | 17 | 13 | 77% | 76.86 | 0.0 | |||||||
| 31 | 17:55 | NW 19 | 16.09 | Mostly Cloudy | BKN100 | 17 | 13 | 77% | 76.86 | 0.0 | |||||||
| 31 | 17:35 | N 15 | 16.09 | Partly Cloudy | SCT100 | 18 | 14 | 78% | 76.86 | 0.0 | |||||||
| 31 | 17:15 | NW 9 | 16.09 | Partly Cloudy | SCT100 | 19 | 12 | 64% | 76.86 | 0.0 | |||||||
| 31 | 16:55 | NW 11 | 16.09 | Fair | CLR | 19 | 12 | 64% | 76.84 | 0.0 | |||||||
| 31 | 16:35 | SW 7 | 16.09 | A Few Clouds | FEW110 | 19 | 13 | 68% | 76.86 | 0.0 | |||||||
| 31 | 16:15 | SW 11 | 16.09 | Partly Cloudy | SCT120 | 19 | 13 | 68% | 76.86 | 0.0 | |||||||
| 31 | 15:55 | Vrbl 11 | 16.09 | A Few Clouds | FEW120 | 20 | 13 | 64% | 76.86 | 0.0 | |||||||
| 31 | 15:35 | S 7 | 16.09 | A Few Clouds | FEW035 FEW041 FEW048 | 20 | 13 | 64% | 76.89 | 0.0 | |||||||
| 31 | 15:15 | S 13 | 16.09 | Partly Cloudy | FEW038 FEW048 SCT100 | 19 | 13 | 68% | 76.91 | 0.0 | |||||||
| 31 | 14:55 | S 9 | 16.09 | Partly Cloudy | SCT110 | 19 | 12 | 64% | 76.94 | 0.0 | |||||||
| 31 | 14:35 | S 13 | 16.09 | Mostly Cloudy | BKN110 | 19 | 12 | 64% | 76.96 | 0.0 | |||||||
| 31 | 14:15 | S 13 | 16.09 | Mostly Cloudy | FEW044 FEW080 BKN100 | 19 | 12 | 64% | 76.99 | 0.0 | |||||||
| 31 | 13:55 | SW 19 | 16.09 | Mostly Cloudy | BKN110 | 19 | 14 | 73% | 77.01 | 0.0 | |||||||
| 31 | 13:35 | SW 17 | 16.09 | Mostly Cloudy | FEW035 SCT065 BKN110 | 19 | 14 | 73% | 77.01 | 0.0 | |||||||
| 31 | 13:15 | S 11 | 16.09 | Mostly Cloudy | FEW065 BKN100 BKN120 | 19 | 12 | 64% | 77.04 | 0.0 | |||||||
| 31 | 12:55 | SE 13 | 16.09 | Partly Cloudy | SCT110 | 19 | 12 | 64% | 77.04 | 0.0 | |||||||
| 31 | 12:35 | SE 9 | 16.09 | Partly Cloudy | FEW085 SCT110 | 19 | 13 | 68% | 77.06 | 0.0 | |||||||
| 31 | 12:15 | SE 6 | 16.09 | Partly Cloudy | SCT090 | 18 | 13 | 73% | 77.09 | 0.0 | |||||||
| 31 | 11:55 | S 6 | 14.48 | Light Drizzle | FEW036 BKN045 BKN065 | 17 | 14 | 83% | 77.11 | 0.0 | |||||||
| 31 | 11:35 | S 11 | 12.87 | Light Drizzle | SCT036 BKN044 OVC070 | 16 | 14 | 88% | 77.11 | 0.0 | |||||||
| 31 | 11:15 | S 9 | 14.48 | Light Drizzle | FEW034 BKN047 OVC055 | 16 | 14 | 88% | 77.14 | 0.0 | |||||||
| 31 | 10:55 | Calm | 12.87 | Light Drizzle | FEW035 BKN049 OVC070 | 16 | 14 | 88% | 77.14 | 0.0 | 0.03 | ||||||
| 31 | 10:35 | Vrbl 6 | 16.09 | Light Drizzle | SCT046 SCT055 BKN070 | 16 | 13 | 83% | 77.09 | 0.0 | |||||||
| 31 | 10:15 | SW 15 | 16.09 | Partly Cloudy | SCT100 SCT120 | 16 | 14 | 88% | 77.09 | 0.0 | |||||||
| 31 | 09:55 | SW 15 | 16.09 | Mostly Cloudy | FEW038 SCT065 BKN100 | 16 | 13 | 83% | 77.09 | 0.0 | |||||||
| 31 | 09:35 | W 13 | 16.09 | Light Drizzle | FEW038 SCT048 BKN055 | 15 | 13 | 88% | 77.06 | 0.0 | |||||||
| 31 | 09:15 | SE 11 | 16.09 | Mostly Cloudy | FEW022 SCT046 BKN110 | 15 | 13 | 88% | 77.04 | 0.0 | |||||||
| 31 | 08:55 | E 22 | 6.44 | Light Rain | FEW022 SCT032 BKN047 | 14 | 12 | 88% | 77.04 | 0.0 | 0.08 | ||||||
| 31 | 08:35 | SE 15 | 8.05 | Light Rain | FEW001 BKN047 OVC065 | 14 | 13 | 94% | 77.06 | 0.0 | |||||||
| 31 | 08:15 | SE 19 | 11.27 | Light Rain | FEW001 SCT033 BKN047 | 14 | 12 | 88% | 77.06 | 0.0 | |||||||
| 31 | 07:55 | SE 13 | 8.05 | Light Rain | SCT001 BKN035 OVC046 | 14 | 13 | 94% | 77.09 | 0.0 | 0.28 | ||||||
| 31 | 07:35 | SE 15 | 6.44 | Light Rain | SCT001 BKN021 OVC046 | 14 | 13 | 94% | 77.14 | 0.0 | |||||||
| 31 | 07:15 | SE 15 | 6.44 | Light Rain | SCT001 BKN036 OVC065 | 14 | 13 | 94% | 77.17 | 0.0 | |||||||
| 31 | 06:55 | S 15 | 4.83 | Rain | FEW020 SCT033 OVC046 | 13 | 13 | 100% | 77.17 | 0.0 | 0.51 | ||||||
| 31 | 06:35 | S 15 | 4.83 | Rain | FEW004 BKN019 OVC045 | 14 | 13 | 94% | 77.17 | 0.0 | |||||||
| 31 | 06:15 | S 20 G 35 | 2.82 | Rain | BKN005 BKN026 OVC047 | 14 | 13 | 94% | 77.17 | 0.0 | |||||||
| 31 | 05:55 | Calm | 12.87 | Thunderstorm | FEW012 BKN033 OVC075 | 13 | 13 | 100% | 77.06 | 0.0 | 0.64 | ||||||
| 31 | 05:35 | Vrbl 6 | 6.44 | Thunderstorm Light Rain | SCT003 BKN018 OVC065 | 13 | 12 | 94% | 77.04 | 0.0 | |||||||
| 31 | 05:15 | W 22 | 3.22 | Thunderstorm Heavy Rain | SCT003 BKN031 OVC042 | 13 | 12 | 94% | 77.04 | 0.0 | |||||||
| 31 | 04:55 | W 15 G 28 | 16.09 | Thunderstorm in Vicinity | FEW007 SCT028 BKN050 | 16 | 13 | 83% | 77.01 | 0.0 | |||||||
| 31 | 04:35 | NW 11 | 11.27 | Thunderstorm in Vicinity Rain | FEW001 SCT041 BKN110 | 15 | 13 | 88% | 76.91 | 0.0 | |||||||
| 31 | 04:15 | NW 17 G 28 | 16.09 | Mostly Cloudy | FEW055 SCT070 BKN110 | 16 | 13 | 83% | 76.86 | 0.0 | |||||||
| 31 | 03:55 | NW 20 | 16.09 | Mostly Cloudy | SCT048 BKN055 | 17 | 13 | 77% | 76.91 | 0.0 | |||||||
| 31 | 03:35 | W 15 G 31 | 16.09 | A Few Clouds | FEW048 | 18 | 11 | 64% | 76.86 | 0.0 | |||||||
| 31 | 03:15 | Calm | 16.09 | Fair | CLR | 16 | 12 | 77% | 76.81 | 0.0 | |||||||
| 31 | 02:55 | Calm | 16.09 | Thunderstorm in Vicinity | CLR | 16 | 12 | 77% | 76.81 | 0.0 | |||||||
| 31 | 02:35 | Calm | 16.09 | A Few Clouds | FEW100 | 16 | 13 | 83% | 76.81 | 0.0 | |||||||
| 31 | 02:15 | Calm | 16.09 | Fair | CLR | 16 | 13 | 83% | 76.84 | 0.0 | |||||||
| 31 | 01:55 | Calm | 16.09 | Fair | CLR | 15 | 13 | 88% | 76.81 | 0.0 | |||||||
| 31 | 01:35 | Calm | 16.09 | Fair | CLR | 17 | 13 | 77% | 76.84 | 0.0 | |||||||
| 31 | 01:15 | Calm | 16.09 | A Few Clouds | FEW110 | 17 | 13 | 77% | 76.84 | 0.0 | |||||||
| 31 | 00:55 | S 6 | 16.09 | Fair | CLR | 17 | 12 | 73% | 76.84 | 0.0 | |||||||
| Date | Time (mst) | Wind (kph) | Vis. (km) | Weather | Sky Cond. | Air | Dwpt | Max. | Min. | Relative Humidity | Wind Chill (°C) | Heat Index (°C) | altimeter (cm) | sea level (mb) | 1 hr | 3 hr | 6 hr |
| 6 hour | |||||||||||||||||
| Temperature (ºC) | Pressure | Precipitation (cm) | |||||||||||||||